Regional Weather Roundup
Issued by NWS Cleveland, OH

Home | Current Version | Previous Version | Text Only | Print | Product List | Glossary Off
Versions: 1 2 3 4 5 6 7 8 9 10 11 12 13 14 15 16 17 18 19 20 21 22 23 24 25 26 27 28 29 30 31 32 33 34 35 36 37 38 39 40 41 42 43 44 45 46 47 48 49 50

000
ASUS41 KCLE 272200
RWRCLE
OHIO REGIONAL WEATHER ROUNDUP
NATIONAL WEATHER SERVICE WILMINGTON, OH
500 PM EST MON FEB 27 2017

NOTE: "FAIR" INDICATES FEW OR NO CLOUDS BELOW 12,000 FEET WITH NO
SIGNIFICANT WEATHER AND/OR OBSTRUCTIONS TO VISIBILITY.

OHZ001>008-015>018-024>027-034-035-043-044-272300-
   NORTHWEST OHIO

CITY           SKY/WX    TMP DP  RH WIND       PRES   REMARKS
DEFIANCE       CLOUDY    48  32  53 S7        30.18F
FINDLAY        CLOUDY    47  37  68 SE12      30.19S
TOLEDO EXPRESS CLOUDY    48  34  58 S6        30.19S
TOLEDO EXEC    CLOUDY    49  32  52 S12       30.21S
LIMA           CLOUDY    46  39  76 S10       30.19S
$$

OHZ009>014-019>023-028>033-038-089-272300-
   NORTHEAST OHIO

CITY           SKY/WX    TMP DP  RH WIND       PRES   REMARKS
CLE-HOPKINS    PTSUNNY   48  29  47 S8        30.26S
CLE-LAKEFRONT  PTSUNNY   49  28  44 S10       30.23S
CUY CO. ARPT   PTSUNNY   50  28  43 SW12      30.24S
LORAIN-ELYRIA  PTSUNNY   47  31  53 S10       30.23S
ASHTABULA      CLOUDY    46  24  42 SW12      30.25R
AKRON-CANTON   CLOUDY    44  35  70 S14       30.23F
WOOSTER        NOT AVBL
MANSFIELD      CLOUDY    43  36  76 S9        30.22R
YOUNGSTOWN     PTSUNNY   45  30  55 S9        30.25F
$$

OHZ042-051>053-060>062-070>072-077>081-272300-
  SOUTHWEST OHIO

CITY           SKY/WX    TMP DP  RH WIND       PRES   REMARKS
CINC-COVINGTON PTSUNNY   49  44  83 SE8       30.19S
CINC-LUNKEN    CLOUDY    49  44  83 CALM      30.21F
HAMILTON       CLOUDY    49  45  86 CALM      30.21S
DAYTON         NOT AVBL
WRIGHT-PAT AFB NOT AVBL
DAYTON GENERAL CLOUDY    46  43  89 S5        30.19S
WILMINGTON     CLOUDY    46  42  86 S7        30.21R
$$

OHZ036-037-039>041-045>050-054>059-063>069-073>076-082>088-272300-
  CENTRAL AND SOUTHEAST OHIO

CITY           SKY/WX    TMP DP  RH WIND       PRES   REMARKS
COLUMBUS       CLOUDY    46  41  82 SE8       30.23S
OSU AIRPORT    CLOUDY    44  41  89 SE7       30.22S
BOLTON FIELD   CLOUDY    43  41  93 S5        30.23F
RICKENBACK AFB NOT AVBL
NEWARK         CLOUDY    44  40  85 SE6       30.23F
MARION         CLOUDY    44  37  76 S6        30.23S
LANCASTER      CLOUDY    46  42  86 SE7       30.24S
ZANESVILLE     CLOUDY    43  40  89 SE3       30.25F
NEW PHILLY     CLOUDY    42  36  79 SE7       30.26F
$$



USA.gov is the U.S. government's official web portal to all federal, state and local government web resources and services.